Regional Weather Roundup
Issued by NWS Jackson, KY

Home | Current Version | Previous Version | Text Only | Print | Product List | Glossary Off
Versions: 1 2 3 4 5 6 7 8 9 10 11 12 13 14 15 16 17 18 19 20 21 22 23 24 25 26 27 28 29 30 31 32 33 34 35 36 37 38 39 40 41 42 43 44 45 46 47 48 49 50

000
ASUS43 KJKL 041410
RWRJKL

EAST KENTUCKY HOURLY WEATHER ROUNDUP
NATIONAL WEATHER SERVICE JACKSON KY
900 AM EST WED MAR 04 2015

NOTE: "FAIR" INDICATES FEW OR NO CLOUDS BELOW 12,000 FEET WITH
NO SIGNIFICANT WEATHER AND/OR OBSTRUCTIONS TO VISIBILITY.

* THESE REPORTS ARE NOT UNDER NWS QUALITY CONTROL AND MAY NOT
  REPORT WEATHER SUCH AS PRECIPITATION AND FOG.

KYZ079-080-083-085-087-088-110-112-115-119-120-041500
...EASTERN KENTUCKY...

CITY           SKY/WX    TMP DP  RH WIND       PRES   REMARKS
JACKSON        RAIN      48  47  96 VRB5      29.94R VSB 1/4
LONDON         LGT RAIN  50  47  89 CALM      29.94R FOG
SOMERSET*      RAIN      46  46 100 CALM      29.95F
MONTICELLO*    FOG       52  50  93 CALM      29.96S VSB 1
MIDDLESBORO*   DRIZZLE   51  51 100 CALM      29.95S
HAZARD APT*    DRIZZLE   50  50 100 SE3       29.95S
BLACK MTN*       N/A     43  43 100 N3          N/A
PIKEVILLE APT* FOG       48  48 100 S3        29.94F VSB 1/2
BIG SANDY*     DRIZZLE   49  48  99 S7        29.93F
MOREHEAD APT*  LGT RAIN  43  41  93 CALM      29.94R VSB 1/4
$$

KYZ035-036-041-042-044-050-067-078-099-041500
...CENTRAL KENTUCKY...

CITY           SKY/WX    TMP DP  RH WIND       PRES   REMARKS
MT STERLING*   LGT RAIN  43  43 100 NE3       29.93R
FLEMING/MASON* RAIN      37  37 100 N6        29.95R WCI  33
DANVILLE*      RAIN      43  43 100 SW3       29.92R
RICHMOND*      CLOUDY    46  45  93 S7        29.90S
LEXINGTON      RAIN      41  40  96 NW9       29.94R FOG
FRANKFORT      LGT RAIN  40  38  93 NW9       29.95R FOG     WCI  34
$$

KYZ091>093-OHZ055-061-077-WVZ005-015-034-035-042-041500
...SOUTHERN OHIO/WEST VIRGINIA...

CITY           SKY/WX    TMP DP  RH WIND       PRES   REMARKS
COVINGTON      CLOUDY    35  33  92 N9        29.96S FOG     WCI  28
COLUMBUS       CLOUDY    34  34 100 NW5       29.96R FOG     WCI  30
DAYTON         CLOUDY    34  31  88 W7        29.99R FOG     WCI  28
WILMINGTON     CLOUDY    33  31  92 NW5       29.96R FOG     WCI  29
HUNTINGTON     RAIN      44  44 100 N3        29.92R VSB 1
CHARLESTON     LGT RAIN  49  47  93 VRB5      29.92F
PINEVILLE*     FOG       42  42 100 MISG      30.01S VSB 1/2
BECKLEY        LGT RAIN  44  44 100 CALM      29.96R VSB 1/2
BLUEFIELD      LGT RAIN  49  45  86 VRB6      29.98R
$$

VAZ002-007-008-TNZ017-027-036-066-071-041500
...SOUTHWEST VIRGINIA/EAST TENNESSEE...

CITY           SKY/WX    TMP DP  RH WIND       PRES   REMARKS
WISE*          DRIZZLE   46  46 100 N5        29.98S
JONESVILLE*    LGT RAIN  50  50 100 CALM      29.95S VSB<1/4
ABINGDON*      DRIZZLE   51  51 100 W3        29.95R
BRISTOL        LGT RAIN  48  48 100 CALM      29.95R FOG
KNOXVILLE      PTSUNNY   64  59  83 SW24      29.92F
OAK RIDGE      LGT RAIN  57  56  96 CALM      29.93F FOG
CROSSVILLE     CLOUDY    61  58  90 VRB7      29.93R
NASHVILLE      LGT RAIN  51  50  96 NE3       29.91S VSB 1
$$

...KEY TO REMARKS...
VSB - VISIBILITY IN MILES
WCI - WIND CHILL INDEX
HX  - HEAT INDEX

$$


USA.gov is the U.S. government's official web portal to all federal, state and local government web resources and services.